Regional Weather Roundup
Issued by NWS

Home | Current Version | Previous Version | Graphics & Text | Print | Product List | Glossary Off
Versions: 1 2 3 4 5 6 7 8 9 10 11 12 13 14 15 16 17 18 19 20 21 22 23 24 25 26 27 28 29 30 31 32 33 34 35 36 37 38 39 40 41 42 43 44 45 46 47 48 49 50

000
ASUS45 KBOU 240007
RWRCO

WEATHER ROUNDUP FOR COLORADO
NATIONAL WEATHER SERVICE DENVER/BOULDER CO
500 PM MST MON JAN 23 2017

NOTE: "FAIR" INDICATES FEW OR NO CLOUDS BELOW 12000 FEET WITH NO
SIGNIFICANT WEATHER AND/OR OBSTRUCTIONS TO VISIBILITY.

COZ001>005-013-030-031-240100-
...NORTHWEST COLORADO...

CITY           SKY/WX    TMP DP  RH WIND       PRES   REMARKS
CRAIG          SNOW      30  27  88 W16G25    29.56R VSB 1/4 WCI  19
HAYDEN         NOT AVBL
MEEKER         FLURRIES  29  27  92 CALM      29.54F
MOUNT WERNER   NOT AVBL
STEAMBOAT SPGS CLOUDY    34  25  70 SE8       29.48S WCI  27
WALDEN           N/A     27  21  80 SE13      29.52S WCI  16
$$

COZ006>008-011-240100-
...WEST CENTRAL VALLEYS...

CITY           SKY/WX    TMP DP  RH WIND       PRES   REMARKS
GRAND JUNCTION CLOUDY    37  32  82 NE6       29.58R
MONTROSE       CLOUDY    35  31  85 W15G31    29.63R WCI  25
EAGLE          LGT SNOW  36  28  75 SW6       29.55F
RIFLE          LGT SNOW  32  31  96 W12G24    29.59R FOG     WCI  23
DELTA          FAIR      39  33  78 S7        29.61S
NUCLA          CLOUDY    34  27  75 W17G28    29.67R WCI  23
$$

COZ017>023-064>068-240100-
...SOUTHWEST COLORADO...

CITY           SKY/WX    TMP DP  RH WIND       PRES   REMARKS
DURANGO        LGT SNOW  31  29  92 SE5       29.67F FOG     WCI  26
CORTEZ         SNOW      32  32 100 W16       29.68R VSB 1/2 WCI  21
PAGOSA SPRINGS LGT SNOW  31  31  97 S5        29.66F WCI  27
TELLURIDE      NOT AVBL
WOLF CREEK PAS CLOUDY    18  18 100 S40G60    29.59F WCI  -4
$$

COZ009-010-012-014-032>034-037-058>063-240100-
...CENTRAL COLORADO...

CITY           SKY/WX    TMP DP  RH WIND       PRES   REMARKS
ASPEN          SNOW      29  28  96 W6        29.53F VSB 1/2 WCI  23
BUENA VISTA    LGT SNOW  30  27  89 CALM      29.57S
COPPER MTN     LGT SNOW  21  14  73 MISG      29.56F VSB 1
BERTHOUD PASS  CLOUDY    12   3  67 MISG      29.57S
COTTONWOOD PAS LGT SNOW  28  27  93 SE8       29.58F VSB 3/4 WCI  20
GUNNISON       FAIR      32  24  72 N3        29.57F
KREMMLING      FAIR      37  28  70 W10G23    29.53F
LEADVILLE      LGT SNOW  22  16  78 S6G21     29.53F WCI  14
MONARCH PASS     N/A     19  16  86 SW16G47   29.64F WCI   5
SALIDA         FAIR      35  28  74 N3        29.61F
SUNLIGHT       CLOUDY    19  18  93 SW9G23    29.57R WCI   9
WILKERSON PASS SNOW     N/A N/A N/A S7        29.61F VSB 1/2
$$

COZ069>075-240100-
...SAN LUIS VALLEY/SANGRE DE CRISTO MOUNTAINS...

CITY           SKY/WX    TMP DP  RH WIND       PRES   REMARKS
ALAMOSA        CLOUDY    33  29  85 SW7       29.64R WCI  27
LA VETA PASS   SNOW      27  23  86 NE30G44   29.61R VSB 1/2 WCI  10
SAGUACHE       CLOUDY    30  23  74 E6        29.59F WCI  24
$$

COZ035-036-038>040-240100-
...NORTHERN COLORADO FRONT RANGE...

CITY           SKY/WX    TMP DP  RH WIND       PRES   REMARKS
DENVER INTL AP MOCLDY    40  29  64 E10       29.50R
DMNS CITY PARK   N/A     47  23  39 W6        29.51R
AURORA         MOCLDY    45  23  41 W9        29.51R
FRONT RANGE AP MOCLDY    45  32  61 E12G18    29.51S
ERIE MUNI ARPT CLOUDY    45  28  50 E5        29.51S
BOULDER MUN AP MOCLDY    46  27  46 NW6       29.50S
CENTENNIAL     MOCLDY    45  21  38 SW13      29.51R
BROOMFIELD     MOCLDY    46  25  42 N3        29.51S
FORT COLLINS   FAIR      43  26  51 SE14      29.52R
LONGMONT       MOCLDY    47  28  47 E6        29.53S
$$

COZ041-046-047-076>085-087-088-240100-
...PIKES PEAK/PALMER DIVIDE AND SOUTHERN FOOTHILLS...

CITY           SKY/WX    TMP DP  RH WIND       PRES   REMARKS
COLO. SPRINGS  MOCLDY    47  18  31 SW17      29.55S
A. F. ACADEMY  MOCLDY    43  20  39 S5        29.54S
SCHRIEVER AFB  MOCLDY    44  21  39 S13       29.55S
ELLICOTT       FAIR     N/A N/A N/A SW17      29.54S
FALCON         CLOUDY    42  16  35 SW5       29.57F
FORT CARSON    PTCLDY    48  20  33 W9        29.52S
LIMON          FAIR      45  23  42 SW15      29.52S
MONUMENT HILL  FAIR      34  21  60 SW6       29.57S WCI  29
TRINIDAD       FAIR      43  27  53 SW20      29.61F
$$

COZ042>045-048>051-090-091-240100-
...NORTHEAST COLORADO...

CITY           SKY/WX    TMP DP  RH WIND       PRES   REMARKS
GREELEY ARPT   CLOUDY    43  28  55 SE10      29.53R
AKRON          FAIR      39  26  59 E9        29.54R
BURLINGTON     FAIR      46  31  55 NE9       29.53F
WRAY           FAIR      43  28  56 E3        29.56S
STERLING       FAIR      43  28  56 SE7       29.53F
HOLYOKE        FAIR      37  30  75 E5        29.57R
FORT MORGAN    MOCLDY    38  25  58 NE10      29.53S
$$

COZ086-089-092>099-240100-
...SOUTHEAST COLORADO...

CITY           SKY/WX    TMP DP  RH WIND       PRES   REMARKS
PUEBLO         FAIR      51  25  36 SW15      29.54R
LA JUNTA       FAIR      47  30  51 SW10      29.56S
LAMAR          FAIR      52  28  39 SW14      29.54S
SPRINGFIELD      N/A     53  24  32 SW13      29.59F
$$



USA.gov is the U.S. government's official web portal to all federal, state and local government web resources and services.